Change the Weather History Date:

Sunday, July 7, 2013

  Actual Average Record
Temperature  
Mean Temperature 51 °F -  
Max Temperature 63 °F - - ()
Min Temperature 39 °F - - ()
Degree Days  
Heating Degree Days 14    
Growing Degree Days 1 (Base 50)    
Moisture  
Dew Point 35 °F    
Average Humidity 60    
Maximum Humidity 100    
Minimum Humidity 16    
Precipitation  
Precipitation 0.00 in - - ()
Sea Level Pressure  
Sea Level Pressure 30.31 in    
Wind  
Wind Speed 10 mph ()    
Max Wind Speed 17 mph    
Max Gust Speed -    
Visibility 7.3 miles    
Events      
T = Trace of Precipitation, MM = Missing Value Source: Averaged Metar Reports

Daily Weather History Graph

Daily Weather History Graph

Search for Another Location

Airport or City:

Trip Planner

Search our weather history database for the weather conditions in past years. The results will help you decide how hot, cold, wet, or windy it might be!

Date:

Astronomy

Jul. 07, 2013 Rise Set
Actual Time 6:55 AM AEST 4:59 PM AEST
Civil Twilight 6:28 AM AEST 5:27 PM AEST
Nautical Twilight 5:57 AM AEST 5:57 PM AEST
Astronomical Twilight 5:27 AM AEST 6:27 PM AEST
Moon 5:41 AM AEST (7/7) 4:14 PM AEST (7/7)
Length of Visible Light 10h 58m
Length of Day
10h 04m
Waning Crescent, 1% of the Moon is Illuminated
Jul 7
Waning Crescent
Jul 8
New
Jul 16
First Quarter
Jul 23
Full
Jul 30
Last Quarter

Hourly Weather History & Observations

Time (AEST) Temp. Windchill Dew Point Humidity Pressure Visibility Wind Dir Wind Speed Gust Speed Precip Events Conditions
12:00 AM 45 °F - 34 °F 54% 30.25 in - WNW 11.5 mph - -  
12:00 AM 44.6 °F 38.8 °F 33.8 °F 66% 30.24 in 6.2 mi WNW 11.5 mph - N/A   Unknown
12:30 AM 42.8 °F 36.2 °F 33.8 °F 70% 30.24 in 6.2 mi WNW 12.7 mph - N/A   Unknown
1:00 AM 43 °F - 34 °F 60% 30.25 in - WNW 10.4 mph - -  
1:00 AM 42.8 °F 37.0 °F 33.8 °F 70% 30.24 in 6.2 mi WNW 10.4 mph - N/A   Unknown
1:30 AM 42.8 °F 36.6 °F 33.8 °F 70% 30.24 in 6.2 mi WNW 11.5 mph - N/A   Unknown
2:00 AM 44.6 °F 38.4 °F 33.8 °F 66% 30.24 in 6.2 mi WNW 12.7 mph - N/A   Unknown
2:30 AM 44.6 °F 37.8 °F 32.0 °F 61% 30.24 in 6.2 mi WNW 15.0 mph - N/A   Unknown
3:00 AM 45 °F - 33 °F 52% 30.26 in - WNW 17.3 mph - -  
3:00 AM 44.6 °F 37.2 °F 33.8 °F 66% 30.24 in 6.2 mi WNW 17.3 mph - N/A   Unknown
3:30 AM 44.6 °F 37.2 °F 33.8 °F 66% 30.24 in 6.2 mi WNW 17.3 mph - N/A   Unknown
4:00 AM 44 °F - 33 °F 55% 30.26 in - WNW 16.1 mph - -  
4:00 AM 44.6 °F 37.4 °F 33.8 °F 66% 30.24 in 6.2 mi WNW 16.1 mph - N/A   Unknown
4:30 AM 42.8 °F 35.4 °F 33.8 °F 70% 30.24 in 6.2 mi WNW 15.0 mph - N/A   Unknown
5:00 AM 42.8 °F 35.8 °F 33.8 °F 70% 30.24 in 6.2 mi WNW 13.8 mph - N/A   Unknown
5:30 AM 42.8 °F 35.4 °F 33.8 °F 70% 30.27 in 6.2 mi WNW 15.0 mph - N/A   Unknown
6:00 AM 44 °F - 33 °F 53% 30.29 in 19 mi WNW 16.1 mph - -   Partly Cloudy
6:00 AM 44.6 °F 37.4 °F 32.0 °F 61% 30.27 in 6.2 mi WNW 16.1 mph - N/A   Partly Cloudy
6:30 AM 42.8 °F 34.8 °F 33.8 °F 70% 30.27 in 6.2 mi WNW 17.3 mph - N/A   Partly Cloudy
7:00 AM 43 °F - 33 °F 57% 30.31 in - WNW 15.0 mph - -  
7:00 AM 42.8 °F 35.4 °F 33.8 °F 70% 30.30 in 6.2 mi WNW 15.0 mph - N/A   Partly Cloudy
7:30 AM 44.6 °F 37.8 °F 32.0 °F 61% 30.30 in 6.2 mi WNW 15.0 mph - N/A   Partly Cloudy
8:00 AM 46.4 °F 39.8 °F 32.0 °F 57% 30.33 in 6.2 mi WNW 16.1 mph - N/A   Partly Cloudy
8:30 AM 48.2 °F - 33.8 °F 58% 30.33 in 6.2 mi WNW 13.8 mph - N/A   Partly Cloudy
9:00 AM 50 °F - 33 °F 40% 30.36 in 19 mi WNW 15.0 mph - -   Partly Cloudy
9:00 AM 50.0 °F - 33.8 °F 54% 30.33 in 6.2 mi WNW 15.0 mph - N/A   Partly Cloudy
9:30 AM 53.6 °F - 33.8 °F 47% 30.36 in 6.2 mi WNW 13.8 mph - N/A   Partly Cloudy
10:00 AM 54 °F - 33 °F 33% 30.37 in - NW 15.0 mph - -  
10:00 AM 53.6 °F - 33.8 °F 47% 30.36 in 6.2 mi NW 15.0 mph - N/A   Partly Cloudy
10:30 AM 55.4 °F - 33.8 °F 44% 30.36 in - WNW 15.0 mph - N/A   Clear
11:00 AM 57.2 °F - 33.8 °F 41% 30.36 in 6.2 mi WNW 13.8 mph - N/A   Partly Cloudy
11:30 AM 59.0 °F - 35.6 °F 42% 30.33 in 6.2 mi WNW 12.7 mph - N/A   Partly Cloudy
12:00 PM 59 °F - 35 °F 29% 30.35 in 19 mi WNW 11.5 mph - -   Partly Cloudy
12:00 PM 59.0 °F - 35.6 °F 42% 30.33 in 6.2 mi WNW 11.5 mph - N/A   Partly Cloudy
12:30 PM 60.8 °F - 35.6 °F 39% 30.33 in - West 9.2 mph - N/A   Clear
1:00 PM 62 °F - 37 °F 27% 30.32 in - WNW 9.2 mph - -  
1:00 PM 62.6 °F - 37.4 °F 39% 30.30 in - WNW 9.2 mph - N/A   Clear
1:30 PM 60.8 °F - 35.6 °F 39% 30.30 in - West 10.4 mph - N/A   Clear
2:00 PM 62.6 °F - 33.8 °F 34% 30.30 in - West 9.2 mph - N/A   Clear
2:30 PM 62.6 °F - 35.6 °F 37% 30.30 in 6.2 mi WNW 8.1 mph - N/A   Unknown
3:00 PM 63 °F - 30 °F 18% 30.31 in 19 mi WNW 8.1 mph - -   Partly Cloudy
3:00 PM 62.6 °F - 30.2 °F 30% 30.30 in - WNW 8.1 mph - N/A   Clear
3:30 PM 62.6 °F - 30.2 °F 30% 30.30 in 6.2 mi WNW 8.1 mph - N/A   Unknown
4:00 PM 62 °F - 27 °F 16% 30.32 in - WNW 8.1 mph - -  
4:00 PM 62.6 °F - 26.6 °F 26% 30.30 in 6.2 mi WNW 8.1 mph - N/A   Unknown
4:30 PM 59.0 °F - 35.6 °F 42% 30.30 in 6.2 mi WNW 5.8 mph - N/A   Unknown
5:00 PM 51.8 °F - 41.0 °F 67% 30.33 in 6.2 mi NW 4.6 mph - N/A   Unknown
5:30 PM 48.2 °F - 39.2 °F 71% 30.33 in 6.2 mi NNW 5.8 mph - N/A   Unknown
6:00 PM 47 °F - 38 °F 63% 30.35 in - North 4.6 mph - -  
6:00 PM 48.2 °F - 39.2 °F 71% 30.33 in 6.2 mi North 4.6 mph - N/A   Unknown
6:30 PM 46.4 °F 44.3 °F 41.0 °F 81% 30.36 in 6.2 mi North 4.6 mph - N/A   Unknown
7:00 PM 45 °F - 40 °F 78% 30.37 in - North 3.5 mph - -  
7:00 PM 44.6 °F 43.1 °F 41.0 °F 87% 30.36 in 6.2 mi North 3.5 mph - N/A   Unknown
7:30 PM 42.8 °F 40.1 °F 39.2 °F 87% 30.36 in 6.2 mi North 4.6 mph - N/A   Unknown
8:00 PM 44.6 °F - 39.2 °F 81% 30.36 in 6.2 mi Calm Calm - N/A   Unknown
8:30 PM 42.8 °F - 39.2 °F 87% 30.36 in 6.2 mi Calm Calm - N/A   Unknown
9:00 PM 41 °F - 39 °F 90% 30.38 in - Calm Calm - -  
9:00 PM 41.0 °F - 39.2 °F 93% 30.36 in 6.2 mi Calm Calm - N/A   Unknown
9:30 PM 41.0 °F - 39.2 °F 93% 30.36 in 6.2 mi Calm Calm - N/A   Unknown
10:00 PM 40 °F - 39 °F 94% 30.40 in - Calm Calm - -  
10:00 PM 39.2 °F - 39.2 °F 100% 30.39 in 6.2 mi Calm Calm - N/A   Unknown
10:30 PM 39.2 °F - 39.2 °F 100% 30.39 in 6.2 mi North 1.2 mph - N/A   Unknown
11:00 PM 41.0 °F 37.1 °F 37.4 °F 87% 30.39 in 6.2 mi NW 5.8 mph - N/A   Unknown
11:30 PM 41.0 °F 36.4 °F 39.2 °F 93% 30.39 in 6.2 mi NW 6.9 mph - N/A   Unknown